www.pogodaiklimat.ru

Погода и климат >> Архив погоды >> Монголия >> Ундерхаан


ПОГОДА в Ундерхаане

  • Прогноз погоды в Ундерхаане
  • Монитор погоды в Ундерхаане

АРХИВ ПОГОДЫ в Ундерхаане

Время (UTC), дата Ветер
(напр.,м/с)
 
Видим.   Явления Облачность Т
(С)
Тd
(С)
f
(%)
Тe
(С)
Тes
(С)
Комфортность P
(гПа)
Po
(гПа)
Тmin
(С)
Tmax
(С)
R
(мм)
R24
(мм)
S
(см)
12 10.08 СВ 4 50 км {ливн. осадки} 9/9 600 м
[Cb calv Ac lent]
+17.4 +15.7 90 +17 +17 1008.6 893.2 +20.8 0.0
15 10.08 С 2 н/о 4/0
[Ac As]
+14.6 +14.6 100 +14 +14 1008.9 894.9
18 10.08 С 2 н/о 1/0
[Ac lent]
+13.3 +13.3 100 +12 +12 1010.6 894.8
21 10.08 ЮВ 1 200 м туман 4/0
[Ac As]
+12.6 +12.6 100 +12 +12 1010.6 895.2
00 11.08 З 2 2000 м туман 9/1 1000 м
[Cu med, cong Ac lent Cs]
+13.6 +13.6 100 +13 +15 1011.4 896.1 +11.9
03 11.08 штиль 0 50 км 3/3 1000 м
[Cu hum Ac lent]
+19.1 +11.5 61 +20 +33 опасность
простуды
1010.9 895.9
06 11.08 ЮВ 3 50 км 4/4 1000 м
[Cu med, cong]
+21.3 +12.9 59 +24 +31 комфорт 1009.0 895.0
09 11.08 ЮВ 2 50 км 4/3 1000 м
[Cu med, cong Ci]
+23.0 +11.3 48 +25 +28 комфорт 1007.3 894.2
12 11.08 Ю 3 50 км 3/0
[Ac lent Ci fib]
+20.7 +16.0 74 +24 +24 комфорт 1007.6 893.6 +23.3
15 11.08 штиль 0 н/о 4/0
[Ci]
+16.2 +14.0 87 +16 +16 1010.0 894.0
18 11.08 З 4 н/о 1/0
[Ac lent]
+13.9 +14.5 100 +12 +12 1010.9 894.0
21 11.08 ЮЗ 3 н/о 9/5
[Sc Ac cast]
+14.2 +13.9 98 +13 +13 1010.4 893.6
00 12.08 ЮЗ 3 50 км {дождь} 9/6 600 м
[Sc Ac As]
+16.7 +14.8 89 +16 +17 1009.7 894.0 +13.3 0.7
03 12.08 ЮЗ 6 20 км слаб. ливневой дождь 10/8 600 м
[Cb calv Ac As]
+17.7 +15.0 84 +17 +17 1009.4 894.1
06 12.08 З 4 50 км {ливн. осадки} 9/9 600 м
[Cb calv]
+17.0 +17.2 100 +16 +17 1009.5 893.9
09 12.08 ЮЗ 2 50 км 5/4 600 м
[Cb calv Ac lent]
+21.3 +14.2 64 +24 +26 комфорт 1006.4 892.8
12 12.08 СВ 3 50 км {ливн. осадки} 4/4 600 м
[Cu med, cong]
+18.6 +16.0 85 +20 +20 1008.1 893.3 +21.9 4
15 12.08 СВ 5 н/о 3/0
[Ac lent Ci]
+15.4 +13.2 87 +14 +14 1011.0 894.7
18 12.08 СВ 5 н/о 3/0
[Ci fib]
+12.7 +9.5 81 +10 +10 1012.8 895.2
21 12.08 С 2 н/о 6/0
[Ac As Ci fib]
+9.7 +10.4 100 +8 +8 1014.1 895.2
00 13.08 СВ 3 50 км 8/1 1000 м
[Cu hum Ac cast]
+12.6 +10.7 88 +11 +12 1013.3 895.6 +9.5
03 13.08 В 3 50 км 3/3 1000 м
[Cu hum Ac lent]
+16.9 +10.7 67 +17 +25 1011.1 895.3
06 13.08 ЮВ 2 50 км 5/4 600 м
[Cu med, cong Ci fib]
+20.4 +11.2 55 +23 +31 комфорт 1007.6 893.5
09 13.08 ЮЗ 2 50 км 9/9 600 м
[Cu med, cong]
+22.2 +10.3 47 +24 +24 комфорт 1005.0 891.9
12 13.08 СЗ 3 20 км слаб. ливневой дождь, в посл. час гроза 9/9 600 м
[Cb calv Ci fib]
+18.0 +14.2 78 +18 +18 1006.9 892.0 +22.4 0.0
15 13.08 штиль 0 н/о зарница {гроза, ливн. осадки} 4/3 600 м
[Cb calv Ci fib]
+15.7 +14.4 92 +15 +15 1007.9 892.0
18 13.08 СВ 1 н/о {гроза} 3/0
[Ac lent]
+13.4 +15.0 100 +13 +13 1007.3 891.8
21 13.08 СЗ 1 н/о 6/5 600 м
[Sc Ac lent Ci fib]
+11.7 +13.3 100 +11 +11 1007.4 892.4
00 14.08 СВ 2 50 км 6/4 600 м
[Cb calv Ac lent Ci fib]
+14.1 +12.0 87 +14 +15 1008.9 892.3 +11.6 1
03 14.08 В 3 50 км {ливн. осадки} 3/3 600 м
[Cb calv Ci fib]
+18.8 +11.4 62 +20 +27 1006.4 891.9
06 14.08 СЗ 3 50 км {ливн. осадки} 6/5 600 м
[Cb calv Ci]
+21.5 +5.5 35 +22 +27 комфорт 1004.3 891.0
09 14.08 СВ 4 50 км 5/3 1000 м
[Cu med, cong Cc]
+22.1 +4.9 33 +22 +24 комфорт 1002.6 889.7
12 14.08 В 4 50 км 6/3 600 м
[Cb calv Ac cuf Ci fib]
+18.0 +9.8 59 +18 +18 1004.6 889.9 +22.8 0.0
15 14.08 С 3 н/о 9/9 600 м
[Cb cap Ac lent]
+14.5 +12.4 87 +14 +14 1006.9 890.7
18 14.08 В 3 н/о слаб. ливневой дождь 10/10 600 м
[Cb cap]
+13.4 +14.0 100 +12 +12 1007.4 890.7
21 14.08 СВ 4 н/о {ливн. осадки} 10/10 600 м
[Cb calv]
+13.2 +11.5 89 +11 +11 1007.0 890.3
00 15.08 СВ 6 50 км {ливн. осадки} 10/10 600 м
[Cb calv]
+12.6 +9.8 83 +10 +10 1008.2 891.1 +12.6 4
03 15.08 СВ 5 50 км {ливн. осадки} 9/9 600 м
[Cb calv]
+15.0 +8.1 63 +14 +14 1008.5 892.3
06 15.08 С 6 50 км {ливн. осадки} 8/8 1000 м
[Cu med, cong]
+18.3 +7.5 49 +18 +19 1006.6 891.9
09 15.08 СВ 7 50 км 4/4 600 м
[Cu med, cong]
+19.3 +6.7 44 +19 +20 1006.6 892.2
12 15.08 С 7
{14}
50 км 8/4 600 м
[Cb calv Ac As]
+15.8 +9.0 64 +14 +14 1009.6 893.5 +19.6 0.0
15 15.08 СВ 4 н/о 3/0
[Ac lent Ci fib]
+13.2 +8.2 72 +12 +12 1011.5 894.2
18 15.08 СВ 4 н/о 4/0
[Ac lent Ci]
+10.9 +7.7 81 +8 +8 1013.0 894.7
21 15.08 Ю 2 н/о 8/0
[Ac As Ci fib]
+8.9 +8.1 95 +7 +7 1014.1 894.9
00 16.08 С 6 50 км 4/0
[Cs]
+13.6 +7.7 67 +12 +13 1012.2 895.0 +8.5
03 16.08 С 5 50 км 8/4 600 м
[Cu med, cong Cs]
+17.0 +7.0 52 +16 +20 1010.6 894.8
06 16.08 С 5 50 км 8/6 600 м
[Cu med, cong Cs]
+18.8 +5.9 43 +19 +21 1008.4 893.6
09 16.08 С 6 50 км 8/8 600 м
[Cu med, cong Ci fib]
+20.5 +4.2 34 +21 +21 комфорт 1007.1 893.0
12 16.08 С 4 50 км 6/3 600 м
[Cu med, cong Ac lent]
+15.8 +8.1 60 +15 +15 1009.2 893.2 +20.9
15 16.08 штиль 0 н/о 3/0
[Ac lent]
+12.5 +8.1 75 +12 +12 1011.2 893.7
18 16.08 Ю 2 н/о ясно +9.1 +10.3 100 +7 +7 1013.0 893.9
21 16.08 штиль 0 н/о ясно +7.3 +8.7 100 +6 +6 1013.8 894.0
00 17.08 ЮЗ 2 50 км 3/0
[Ac lent]
+11.3 +9.4 88 +10 +13 1012.6 894.5 +6.7
03 17.08 ЮЗ 2 50 км 3/3 600 м
[Cu med, cong Ci fib]
+17.7 +8.8 56 +18 +27 1008.8 893.6
06 17.08 Ю 3 50 км 8/6 600 м
[Cb calv Ac lent Cc]
+21.3 +7.4 41 +22 +26 комфорт 1005.3 891.8
09 17.08 ЮЗ 5 50 км 9/5 600 м
[Cb calv Ac und Cc]
+21.3 +7.3 40 +22 +23 комфорт 1004.2 890.8

 

Местоположение метеостанции Ундерхаан (Монголия): широта 47.32 долгота 110.63 высота над уровнем моря 1033 м.

В архиве по умолчанию представлена погода в Ундерхаане за последнюю неделю. Архивные данные за месяц целиком и за предыдущие месяцы, начиная с января 2011 года, Вы можете получить, выбрав интересующий диапазон дат из раскрывающегося списка и нажав кнопку "Ввод!".


*Определитесь, кто Вы:
робот инопланетянин человек

Внимание! Время в таблицах - всемирное. Для получения местного времени необходимо прибавить поправку, которая равна 8 ч.

Смотрите также архив погоды в соседних городах и на ближайших метеорологических станциях:

Погода в Баян-Ову (Монголия) (122 км)
Погода в Биндэре (Монголия) (145 км)
Погода в Татаале (Монголия) (181 км)
Погода в Чойре (Монголия) (208 км)
Погода в Баруун-Урте (Монголия) (213 км)
Погода в Баяндэлгэре (Монголия) (221 км)
Погода в Маанти (Монголия) (238 км)
Погода в Букукуне (Забайкальский край, Россия) (239 км)
Погода в Кыре (Забайкальский край, Россия) (267 км)
Погода в Мензе (Забайкальский край, Россия) (271 км)

Пояснения к столбцам:

Ветер - указаны скорость ветра в м/с - средняя за 10 мин, порывы в срок и между сроками (в фигурных скобках) и направление, откуда дует ветер: С - северный, СВ - северо-восточный, В - восточный, ЮВ - юго-восточный, Ю - южный, ЮЗ - юго-западный, З - западный, СЗ - северо-западный.
Видимость - горизонтальная дальность видимости в метрах или километрах. При видимости от 1 до 10 км при отсутствии осадков обычно наблюдается дымка, при ухудшении видимости до 1 км и менее - туман. В сухую погоду видимость может ухудшаться дымом, пылью или мглою.
Явления - указаны атмосферные явления, наблюдавшиеся в срок или в последний час перед сроком; фигурными скобками обозначены явления, наблюдавшиеся между сроками (за 1-3 часа до срока); квадратными скобками обозначены град или гололедные отложения с указанием их диаметра в мм.
Облачность - указаны через наклонную черту общая и нижняя облачность в баллах и высота нижней границы облаков в метрах; квадратными скобками обозначены формы облаков: Ci - перистые, Cs - перисто-слоистые, Cc - перисто-кучевые, Ac - высококучевые, As - высокослоистые, Sc - слоисто-кучевые, Ns - слоисто-дождевые, Cu - кучевые, Cb - кучево-дождевые. Подробнее классификацию облаков см. в Атласе облаков (PDF).
T - Температура воздуха - температура, измеренная на высоте 2 м над землей.
Td - Температура точки росы - температура, при понижении до которой содержащийся в воздухе водяной пар достигнет насыщения.
f - Относительная влажность воздуха - влажноcть воздуха, измеренная на высоте 2 м над землей.
Te - Эффективная температура - температура, которую ощущает одетый по сезону человек в тени. Характеристика душности погоды. При расчете учитывается влияние влажности воздуха и скорости ветра на теплоощущения человека.
Tes - Эффективная температура на солнце - температура, которую ощущает человек, с поправкой на солнечный нагрев. Характеристика знойности погоды. Зависит от высоты солнца над горизонтом, облачности и скорости ветра. Ночью, в пасмурную погоду, а также при ветре 12 м/с и более поправка равна нулю.
P - Атмосферное давление - приведенное к уровню моря атмосферное давление.
Po - Атмосферное давление - измеренное на уровне метеостанции атмосферное давление.
Tmin - Минимальная температура - минимум температуры воздуха на высоте 2 м над землей.
Tmax - Максимальная температура - максимум температуры воздуха на высоте 2 м над землей.
R - Количество осадков - Количество выпавших осадков за период времени, мм. При наведении курсора мыши на число - период времени, за который выпало указанное количество осадков.
R24 - Количество осадков - Количество выпавших осадков за 24 часа, мм.
S - Снежный покров - Высота снежного покрова, см. При наведении курсора мыши на число - состояние снежного покрова и степень покрытия местности в баллах.